Regional Weather Roundup
Issued by NWS

Home | Current Version | Previous Version | Graphics & Text | Print | Product List | Glossary On
Versions: 1 2 3 4 5 6 7 8 9 10 11 12 13 14 15 16 17 18 19 20 21 22 23 24 25 26 27 28 29 30 31 32 33 34 35 36 37 38 39 40 41 42 43 44 45 46 47 48 49 50
000
ASUS45 KSLC 311610
RWRUT

UTAH REGIONAL WEATHER ROUNDUP
NATIONAL WEATHER SERVICE SALT LAKE CITY UT
1000 AM MDT MON AUG 31 2015

UTZ001>011-023>025-311700-

NORTHERN UTAH

CITY           SKY/WX    TMP DP  RH WIND       PRES   REMARKS
BRIGHAM CITY   SUNNY     66  33  28 CALM      30.11R
HILL AFB       MOSUNNY   72  44  37 VRB5      30.12R
LOGAN          SUNNY     62  35  36 CALM      30.14S
OGDEN          MOSUNNY   72  42  34 VRB5      30.10S
PROVO AIRPORT  MOSUNNY   70  50  49 SE3       30.12S
SALT LAKE CITY MOSUNNY   73  43  33 CALM      30.09S
VERNAL         MOSUNNY   70  50  49 CALM      30.19R
WENDOVER       SUNNY     72  27  18 S5        30.12S
HEBER CITY     SUNNY     63  46  55 CALM      30.18S
WEST JORDAN    SUNNY     72  41  33 CALM      30.12S

$$

UTZ012>022-026-027-311700-

SOUTHERN/CENTRAL UTAH

CITY           SKY/WX    TMP DP  RH WIND       PRES   REMARKS
BLANDING       PTSUNNY   69  56  64 CALM      30.31R
BRYCE CANYON   SUNNY     66  51  58 S3        30.33S
CEDAR CITY     SUNNY     74  50  42 SW8       30.16S
DELTA          SUNNY     72  39  30 SW9       30.11S
HANKSVILLE     MOSUNNY   77  55  47 N6        30.14S
MILFORD        SUNNY     74  50  42 S10       30.12F
MOAB/CYNLANDS  MOSUNNY   72  59  63 E7        30.13S
PRICE          SUNNY     68  53  58 SE6       30.22R
ST GEORGE      SUNNY     82  55  39 E12       30.02S
KANAB          MOSUNNY   70  59  68 CALM      30.23R

$$

REGIONAL REPORTS     COLORADO/ARIZONA

CITY           SKY/WX    TMP DP  RH WIND       PRES   REMARKS
CRAIG, CO      MOSUNNY   67  51  56 E8        30.24S
GRAND JUNCTION LGT RAIN  62  60  93 E9        30.19S
RIFLE          PTSUNNY   65  57  75 E5        30.24S
MONTROSE       LGT RAIN  63  56  78 CALM      30.26R
CORTEZ         SUNNY     72  52  49 CALM      30.24R
PAGE, AZ       MOSUNNY   72  58  61 VRB3      30.14S
GRAND CANYON   MOSUNNY   64  55  72 S7        30.29R
KINGMAN        MOSUNNY   84  42  22 W3        30.02R
FLAGSTAFF      MOSUNNY   66  57  72 SW6       30.32S

$$

REGIONAL REPORTS    NEVADA/IDAHO/WYOMING

CITY           SKY/WX    TMP DP  RH WIND       PRES   REMARKS
LAS VEGAS, NV  MOSUNNY   87  42  20 NW3       29.87R
ELY            SUNNY     64  26  23 NE5       30.21S
ELKO           SUNNY     61  20  20 CALM      30.15F
POCATELLO, ID  SUNNY     65  39  38 SW13      30.15S
BURLEY         SUNNY     62  42  47 W8        30.13S
EVANSTON, WY   MOSUNNY   64  37  36 VRB6      30.25S
ROCK SPRINGS   SUNNY     62  49  62 CALM      30.23F
KEMMERER       MOSUNNY   61  23  23 CALM      30.26R

$$



USA.gov is the U.S. government's official web portal to all federal, state and local government web resources and services.